Regional Weather Roundup
Issued by NWS Goodland, KS

Home | Current Version | Previous Version | Text Only | Print | Product List | Glossary Off
Versions: 1 2 3 4 5 6 7 8 9 10 11 12 13 14 15 16 17 18 19 20 21 22 23 24 25 26 27 28 29 30 31 32 33 34 35 36 37 38 39 40 41 42 43 44 45 46 47 48 49 50

000
ASUS43 KGLD 011908
RWRGLD

GOODLAND FORECAST AREA HOURLY WEATHER ROUNDUP
NATIONAL WEATHER SERVICE GOODLAND KS
1200 PM MST SUN MAR 01 2015

...OFFICIAL OBSERVATIONS...

CITY           SKY/WX    TMP DP  RH WIND       PRES   REMARKS
GOODLAND KS    PTSUNNY   31  17  56 VRB7G17   30.29R
HILL CITY KS   CLOUDY    30  19  63 NW7       30.36F
IMPERIAL NEB     N/A     33  11  39 NE10      30.30F
MCCOOK NEB     SUNNY     38  12  34 MISG      30.31F
AKRON CO       SUNNY     28  16  60 N9G17     30.23F
BURLINGTON CO  MOSUNNY   29  18  63 N10       30.26R WCI  20
LIMON CO       PTSUNNY   23  16  74 N9        30.22R
$$

...UNOFFICIAL OBSERVATIONS...

CITY           SKY/WX    TMP DP  RH WIND       PRES   REMARKS
COLBY KS       MOSUNNY   32  21  64 N10       30.32R
GOVE KS          N/A     29  32 100 MISG        N/A
LENORA KS        N/A     29  32 100 S6          N/A
NORTON KS      MOSUNNY   36  12  38 N5        30.33F
SHARON SPRINGS   N/A     27  21  77 N8          N/A
KIT CARSON CO    N/A     27  19  72 MISG        N/A
YUMA CO          N/A     31  16  52 NE12        N/A
$$


USA.gov is the U.S. government's official web portal to all federal, state and local government web resources and services.